Weather History for KHLC - August, 2012

Change the Weather History Date:

Sunday, August 5, 2012

  Actual Average Record
Temperature  
Mean Temperature 73 °F 78 °F  
Max Temperature 95 °F 92 °F 111 °F (1934)
Min Temperature 50 °F 66 °F 50 °F (2012)
Cooling Degree Days 8    
Growing Degree Days 22 (Base 50)    
Moisture  
Dew Point 43 °F    
Average Humidity 40    
Maximum Humidity 74    
Minimum Humidity 15    
Precipitation  
Precipitation 0.00 in 0.10 in 0.65 in (2007)
Month to date precipitation 0.02 0.48  
Year to date precipitation 5.58 15.45  
Sea Level Pressure  
Sea Level Pressure 30.17 in    
Wind  
Wind Speed 5 mph (SSW)    
Max Wind Speed 13 mph    
Max Gust Speed 21 mph    
Visibility 10 miles    
Events      
T = Trace of Precipitation, MM = Missing Value Source: NWS Daily Summary

Daily Weather History Graph

Daily Weather History Graph

Search for Another Location

Airport or City:

Trip Planner

Search our weather history database for the weather conditions in past years. The results will help you decide how hot, cold, wet, or windy it might be!

Date:

Astronomy

Aug. 05, 2012 Rise Set
Actual Time 6:43 AM CDT 8:46 PM CDT
Civil Twilight 6:13 AM CDT 9:16 PM CDT
Nautical Twilight 5:37 AM CDT 9:51 PM CDT
Astronomical Twilight 4:58 AM CDT 10:30 PM CDT
Moon 10:27 PM CDT (8/5) 10:32 AM CDT (8/5)
Length of Visible Light 15h 02m
Length of Day
14h 03m
Waning Gibbous, 86% of the Moon is Illuminated
Aug 5
Waning Gibbous
Aug 9
Last Quarter
Aug 17
New
Aug 24
First Quarter
Aug 31
Full

Hourly Weather History & Observations

Time (CDT) Temp. Dew Point Humidity Pressure Visibility Wind Dir Wind Speed Gust Speed Precip Events Conditions
12:53 AM 55.0 °F 43.0 °F 64% 30.14 in 10.0 mi Calm Calm - N/A   Clear
1:53 AM 53.1 °F 43.0 °F 69% 30.17 in 9.0 mi North 3.5 mph - N/A   Clear
2:53 AM 53.1 °F 43.0 °F 69% 30.17 in 10.0 mi West 3.5 mph - N/A   Clear
3:53 AM 54.0 °F 44.1 °F 69% 30.18 in 10.0 mi West 5.8 mph - N/A   Clear
4:53 AM 52.0 °F 44.1 °F 74% 30.21 in 10.0 mi WSW 3.5 mph - N/A   Clear
5:53 AM 53.1 °F 45.0 °F 74% 30.24 in 10.0 mi NW 6.9 mph - N/A   Clear
6:53 AM 52.0 °F 44.1 °F 74% 30.25 in 10.0 mi NW 4.6 mph - N/A   Clear
7:53 AM 55.9 °F 45.0 °F 67% 30.25 in 10.0 mi Calm Calm - N/A   Clear
8:53 AM 66.9 °F 46.9 °F 49% 30.25 in 10.0 mi WSW 3.5 mph - N/A   Clear
9:53 AM 73.9 °F 48.9 °F 41% 30.25 in 10.0 mi West 4.6 mph - N/A   Clear
10:53 AM 80.1 °F 46.0 °F 30% 30.24 in 10.0 mi South 8.1 mph - N/A   Clear
11:53 AM 84.9 °F 45.0 °F 25% 30.22 in 10.0 mi Variable 5.8 mph - N/A   Clear
12:53 PM 86.0 °F 44.1 °F 23% 30.21 in 10.0 mi Variable 3.5 mph - N/A   Clear
1:53 PM 89.1 °F 43.0 °F 20% 30.18 in 10.0 mi Calm Calm - N/A   Clear
2:53 PM 93.0 °F 42.1 °F 17% 30.16 in 10.0 mi South 8.1 mph - N/A   Clear
3:53 PM 93.0 °F 42.1 °F 17% 30.13 in 10.0 mi ESE 8.1 mph 18.4 mph N/A   Clear
4:53 PM 93.9 °F 41.0 °F 16% 30.11 in 10.0 mi South 9.2 mph - N/A   Clear
5:53 PM 93.9 °F 39.9 °F 15% 30.09 in 10.0 mi SSE 12.7 mph 20.7 mph N/A   Clear
6:53 PM 93.0 °F 37.9 °F 15% 30.08 in 10.0 mi SSE 12.7 mph 19.6 mph N/A   Clear
7:53 PM 90.0 °F 39.9 °F 17% 30.08 in 10.0 mi South 11.5 mph - N/A   Clear
8:53 PM 84.0 °F 39.9 °F 21% 30.08 in 10.0 mi SSE 6.9 mph - N/A   Clear
9:53 PM 78.1 °F 41.0 °F 27% 30.11 in 10.0 mi South 5.8 mph - N/A   Clear
10:53 PM 77.0 °F 42.1 °F 29% 30.11 in 10.0 mi South 8.1 mph - N/A   Clear
11:53 PM 75.0 °F 44.1 °F 33% 30.12 in 10.0 mi South 8.1 mph - N/A   Clear